Weather History for Montague, CA

Change the Weather History Date:

Friday, October 12, 2012

  Actual Average Record
Temperature  
Mean Temperature 53 °F 54 °F  
Max Temperature 71 °F 70 °F 90 °F (1991)
Min Temperature 35 °F 37 °F 18 °F (2008)
Degree Days  
Heating Degree Days 12 12  
Month to date heating degree days 69 117  
Since 1 July heating degree days 84 259  
Cooling Degree Days 0 0  
Month to date cooling degree days 2 0  
Year to date cooling degree days 621 542  
Growing Degree Days 2 (Base 50)    
Moisture  
Dew Point 39 °F    
Average Humidity 62    
Maximum Humidity 82    
Minimum Humidity 31    
Precipitation  
Precipitation 0.00 in 0.04 in 0.76 in (1963)
Month to date precipitation T 0.23  
Year to date precipitation 7.63 11.87  
Sea Level Pressure  
Sea Level Pressure 30.05 in    
Wind  
Wind Speed 5 mph (SW)    
Max Wind Speed 15 mph    
Max Gust Speed 20 mph    
Visibility 10 miles    
Events      
T = Trace of Precipitation, MM = Missing Value Source: NWS Daily Summary

Daily Weather History Graph

Daily Weather History Graph

Search for Another Location

Airport:

Trip Planner

Search our weather history database for the weather conditions in past years. The results will help you decide how hot, cold, wet, or windy it might be!

Date:

Astronomy

Oct. 12, 2012 Rise Set
Actual Time 7:19 AM PDT 6:32 PM PDT
Civil Twilight 6:51 AM PDT 7:00 PM PDT
Nautical Twilight 6:19 AM PDT 7:32 PM PDT
Astronomical Twilight 5:46 AM PDT 8:04 PM PDT
Moon 4:06 AM PDT (10/12) 4:46 PM PDT (10/12)
Length of Visible Light 12h 08m
Length of Day
11h 12m
Waning Crescent, 10% of the Moon is Illuminated
Oct 12
Waning Crescent
Oct 15
New
Oct 21
First Quarter
Oct 29
Full
Nov 6
Last Quarter

Hourly Weather History & Observations

Time (PDT) Temp. Windchill Dew Point Humidity Pressure Visibility Wind Dir Wind Speed Gust Speed Precip Events Conditions
1:53 AM 42.1 °F - 30.0 °F 62% 29.92 in 10.0 mi Calm Calm - N/A   Clear
2:53 AM 46.9 °F - 37.9 °F 71% 29.92 in 10.0 mi Calm Calm - N/A   Clear
3:53 AM 41.0 °F - 32.0 °F 70% 29.93 in 10.0 mi Calm Calm - N/A   Clear
4:53 AM 42.1 °F 40.2 °F 36.0 °F 79% 29.94 in 10.0 mi ENE 3.5 mph - N/A   Clear
5:53 AM 37.0 °F 32.4 °F 32.0 °F 82% 29.96 in 10.0 mi North 5.8 mph - N/A   Clear
6:53 AM 36.0 °F 32.1 °F 30.0 °F 79% 30.00 in 4.0 mi NNE 4.6 mph - N/A   Haze
7:53 AM 37.9 °F 32.1 °F 32.0 °F 79% 30.02 in 10.0 mi NNE 8.1 mph - N/A   Clear
10:53 AM 57.0 °F - 42.1 °F 57% 30.04 in 10.0 mi Variable 3.5 mph - N/A   Clear
11:53 AM 62.1 °F - 42.1 °F 48% 30.04 in 10.0 mi Variable 3.5 mph - N/A   Clear
12:53 PM 66.0 °F - 41.0 °F 40% 30.03 in 10.0 mi South 4.6 mph - N/A   Clear
1:53 PM 69.1 °F - 37.9 °F 32% 30.02 in 10.0 mi Variable 3.5 mph - N/A   Clear
3:53 PM 68.0 °F - 42.1 °F 39% 30.02 in 10.0 mi SSW 13.8 mph - N/A   Clear
4:53 PM 64.0 °F - 42.1 °F 45% 30.05 in 10.0 mi South 16.1 mph - N/A   Clear
5:53 PM 59.0 °F - 42.1 °F 53% 30.09 in 10.0 mi South 9.2 mph - N/A   Clear
7:53 PM 54.0 °F - 43.0 °F 66% 30.16 in 10.0 mi SW 8.1 mph - N/A   Clear
8:53 PM 53.1 °F - 43.0 °F 69% 30.17 in 10.0 mi WSW 5.8 mph - N/A   Clear
9:53 PM 52.0 °F - 42.1 °F 69% 30.18 in 10.0 mi Calm Calm - N/A   Clear
10:53 PM 52.0 °F - 43.0 °F 71% 30.19 in 10.0 mi West 4.6 mph - N/A   Mostly Cloudy
11:53 PM 52.0 °F - 42.1 °F 69% 30.21 in 10.0 mi Calm Calm - N/A   Overcast